Leesburg, VA

8:06 PM EST on December 06, 2019 (GMT -0500)
Leesburg Executive

Weather History for KJYO - May, 2019

Change the Weather History Date:

Saturday, May 11, 2019

  Actual Average (WUND) Record (WUND)
Temperature  
Mean Temperature 56 °F -  
Max Temperature 62 °F - - (-1)
Min Temperature 51 °F - - (-1)
Degree Days  
Heating Degree Days 8    
Growing Degree Days 6 (Base 50)    
Moisture  
Dew Point 55 °F    
Average Humidity 86    
Maximum Humidity 100    
Minimum Humidity 68    
Precipitation  
Precipitation 0.00 in - - ()
Sea Level Pressure  
Sea Level Pressure 30.02 in    
Wind  
Wind Speed 4 mph (NNE)    
Max Wind Speed 10 mph    
Max Gust Speed 18 mph    
Visibility 9 miles    
Events      
Averages and records for this station are not official NWS values.
T = Trace of Precipitation, MM = Missing Value Source: NWS Daily Summary

Daily Weather History Graph

Daily Weather History Graph

Search for Another Location

Airport or City:

Astronomy

May. 11, 2019 Rise Set
Actual Time 6:01 AM EDT 8:12 PM EDT
Civil Twilight 5:31 AM EDT 8:42 PM EDT
Nautical Twilight 4:55 AM EDT 9:18 PM EDT
Astronomical Twilight 4:15 AM EDT 9:58 PM EDT
Moon 12:07 PM EDT (5/11) 1:51 AM EDT (5/11)
Length of Visible Light 15h 10m
Length of Day
14h 11m
Waxing Crescent, 46% of the Moon is Illuminated
May 11
Waxing Crescent
May 11
First Quarter
May 18
Full
May 26
Last Quarter
Jun 3
New

Hourly Weather History & Observations

Time (EDT) Temp. Dew Point Humidity Pressure Visibility Wind Dir Wind Speed Gust Speed Precip Events Conditions
12:15 AM 62.6 °F 62.6 °F 100% 30.03 in 1.2 mi Calm Calm - N/A   Mostly Cloudy
12:35 AM 62.6 °F 62.6 °F 100% 30.02 in 5.0 mi Calm Calm - N/A   Clear
12:55 AM 62.6 °F 62.6 °F 100% 30.03 in 10.0 mi Calm Calm - N/A   Mostly Cloudy
1:15 AM 62.6 °F 62.6 °F 100% 30.03 in 7.0 mi Calm Calm - N/A   Overcast
1:35 AM 60.8 °F 60.8 °F 100% 30.03 in 7.0 mi Calm Calm - N/A   Overcast
1:55 AM 60.8 °F 60.8 °F 100% 30.03 in 10.0 mi Calm Calm - N/A   Overcast
2:15 AM 60.8 °F 60.8 °F 100% 30.03 in 10.0 mi North 4.6 mph - N/A   Mostly Cloudy
2:35 AM 60.8 °F 60.8 °F 100% 30.02 in 10.0 mi Calm Calm - N/A   Mostly Cloudy
2:55 AM 60.8 °F 60.8 °F 100% 30.02 in 10.0 mi Calm Calm - N/A   Scattered Clouds
3:15 AM 60.8 °F 60.8 °F 100% 30.01 in 10.0 mi North 3.5 mph - N/A   Clear
3:35 AM 60.8 °F 60.8 °F 100% 30.01 in 10.0 mi Calm Calm - N/A   Scattered Clouds
3:55 AM 60.8 °F 59.0 °F 94% 30.02 in 10.0 mi North 6.9 mph - N/A   Scattered Clouds
4:15 AM 60.8 °F 59.0 °F 94% 30.03 in 10.0 mi North 6.9 mph - N/A   Scattered Clouds
4:35 AM 59.0 °F 59.0 °F 100% 30.03 in 10.0 mi North 5.8 mph - N/A   Scattered Clouds
4:55 AM 59.0 °F 59.0 °F 100% 30.03 in 10.0 mi North 5.8 mph - N/A   Scattered Clouds
5:15 AM 59.0 °F 59.0 °F 100% 30.04 in 10.0 mi North 5.8 mph - N/A   Scattered Clouds
5:35 AM 59.0 °F 59.0 °F 100% 30.04 in 10.0 mi North 5.8 mph - N/A   Scattered Clouds
5:55 AM 59.0 °F 57.2 °F 94% 30.06 in 10.0 mi North 6.9 mph - N/A   Scattered Clouds
6:15 AM 60.8 °F 57.2 °F 88% 30.05 in 10.0 mi North 5.8 mph - N/A   Scattered Clouds
6:35 AM 59.0 °F 57.2 °F 94% 30.06 in 10.0 mi NNE 5.8 mph - N/A   Scattered Clouds
6:55 AM 59.0 °F 55.4 °F 88% 30.06 in 10.0 mi NNE 6.9 mph - N/A   Clear
7:15 AM 59.0 °F 55.4 °F 88% 30.06 in 10.0 mi NNE 5.8 mph - N/A   Clear
7:35 AM 59.0 °F 55.4 °F 88% 30.05 in 10.0 mi NNE 6.9 mph - N/A   Mostly Cloudy
7:55 AM 59.0 °F 53.6 °F 82% 30.05 in 10.0 mi NNE 10.4 mph 18.4 mph N/A   Overcast
8:15 AM 59.0 °F 53.6 °F 82% 30.06 in 10.0 mi NNE 9.2 mph - N/A   Scattered Clouds
8:35 AM 59.0 °F 53.6 °F 82% 30.05 in 10.0 mi NNE 9.2 mph 17.3 mph N/A   Scattered Clouds
8:55 AM 59.0 °F 51.8 °F 77% 30.09 in 10.0 mi North 8.1 mph - N/A   Scattered Clouds
9:15 AM 59.0 °F 51.8 °F 77% 30.10 in 10.0 mi NNW 10.4 mph - N/A   Scattered Clouds
9:35 AM 59.0 °F 51.8 °F 77% 30.10 in 10.0 mi NNW 6.9 mph - N/A   Mostly Cloudy
9:55 AM 60.8 °F 50.0 °F 68% 30.10 in 10.0 mi North 6.9 mph - N/A   Overcast
10:15 AM 60.8 °F 51.8 °F 72% 30.09 in 10.0 mi NNE 6.9 mph - N/A   Scattered Clouds
10:35 AM 60.8 °F 50.0 °F 68% 30.09 in 10.0 mi NNE 6.9 mph - N/A   Clear
10:55 AM 59.0 °F 50.0 °F 72% 30.10 in 10.0 mi North 8.1 mph - N/A   Scattered Clouds
11:15 AM 59.0 °F 50.0 °F 72% 30.10 in 10.0 mi North 9.2 mph - N/A   Mostly Cloudy
11:55 AM 60.8 °F 50.0 °F 68% 30.08 in 10.0 mi NNE 6.9 mph - N/A   Overcast
12:15 PM 60.8 °F 50.0 °F 68% 30.08 in 10.0 mi NNE 6.9 mph - N/A   Overcast
12:35 PM 60.8 °F 50.0 °F 68% 30.08 in 10.0 mi North 8.1 mph - N/A   Overcast
12:55 PM 60.8 °F 51.8 °F 72% 30.08 in 10.0 mi NNE 3.5 mph - N/A   Overcast
1:15 PM 60.8 °F 51.8 °F 72% 30.08 in 10.0 mi North 4.6 mph - N/A   Overcast
1:35 PM 62.6 °F 51.8 °F 68% 30.07 in 10.0 mi Calm Calm - N/A   Overcast
1:55 PM 60.8 °F 51.8 °F 72% 30.07 in 10.0 mi North 3.5 mph - N/A   Overcast
2:15 PM 60.8 °F 51.8 °F 72% 30.06 in 10.0 mi North 4.6 mph - N/A   Overcast
2:35 PM 62.6 °F 51.8 °F 68% 30.05 in 10.0 mi Calm Calm - N/A   Overcast
2:55 PM 62.6 °F 51.8 °F 68% 30.04 in 10.0 mi Calm Calm - N/A   Overcast
3:15 PM 62.6 °F 51.8 °F 68% 30.03 in 10.0 mi ENE 4.6 mph - N/A   Overcast
3:35 PM 62.6 °F 53.6 °F 72% 30.01 in 10.0 mi ENE 3.5 mph - N/A   Overcast
3:55 PM 62.6 °F 53.6 °F 72% 30.01 in 10.0 mi ENE 3.5 mph - N/A   Overcast
4:15 PM 62.6 °F 53.6 °F 72% 30.00 in 10.0 mi East 4.6 mph - N/A   Overcast
4:35 PM 62.6 °F 53.6 °F 72% 29.98 in 10.0 mi ENE 4.6 mph - N/A   Overcast
4:55 PM 62.6 °F 53.6 °F 72% 30.00 in 10.0 mi Calm Calm - N/A   Overcast
5:15 PM 62.6 °F 55.4 °F 77% 29.98 in 7.0 mi NE 5.8 mph - N/A   Overcast
5:35 PM 60.8 °F 55.4 °F 82% 29.98 in 10.0 mi ENE 5.8 mph - N/A   Overcast
5:55 PM 60.8 °F 53.6 °F 77% 30.00 in 10.0 mi SSE 3.5 mph - N/A   Overcast
6:15 PM 60.8 °F 55.4 °F 82% 29.99 in 7.0 mi Calm Calm - N/A   Overcast
6:35 PM 59.0 °F 55.4 °F 88% 29.97 in 5.0 mi ENE 4.6 mph - N/A   Overcast
6:55 PM 59.0 °F 55.4 °F 88% 29.96 in 10.0 mi ENE 5.8 mph - N/A   Overcast
7:15 PM 59.0 °F 55.4 °F 88% 29.96 in 10.0 mi ENE 4.6 mph - N/A   Overcast
7:35 PM 59.0 °F 55.4 °F 88% 29.96 in 10.0 mi NE 6.9 mph - N/A   Overcast
7:55 PM 59.0 °F 55.4 °F 88% 29.96 in 10.0 mi ENE 4.6 mph - N/A   Overcast
8:15 PM 57.2 °F 55.4 °F 94% 29.95 in 7.0 mi ENE 3.5 mph - N/A   Overcast
8:35 PM 55.4 °F 55.4 °F 100% 29.96 in 5.0 mi NE 5.8 mph - N/A   Overcast
8:55 PM 55.4 °F 55.4 °F 100% 29.95 in 4.0 mi NE 4.6 mph - N/A   Overcast
9:15 PM 55.4 °F 55.4 °F 100% 29.95 in 4.0 mi NE 5.8 mph - N/A   Overcast
9:35 PM 55.4 °F 55.4 °F 100% 29.96 in 5.0 mi NE 4.6 mph - N/A   Overcast
9:55 PM 53.6 °F 53.6 °F 100% 29.95 in 4.0 mi East 4.6 mph - N/A   Overcast
10:15 PM 53.6 °F 53.6 °F 100% 29.95 in 7.0 mi ENE 8.1 mph - N/A   Overcast
10:35 PM 53.6 °F 53.6 °F 100% 29.95 in 5.0 mi NE 5.8 mph - N/A   Overcast
10:55 PM 53.6 °F 53.6 °F 100% 29.93 in 4.0 mi NE 5.8 mph - N/A   Overcast
11:15 PM 53.6 °F 53.6 °F 100% 29.93 in 4.0 mi NE 6.9 mph - N/A   Overcast
11:35 PM 51.8 °F 51.8 °F 100% 29.92 in 5.0 mi NE 6.9 mph - N/A   Overcast
11:55 PM 51.8 °F 51.8 °F 100% 29.92 in 4.0 mi NE 4.6 mph - N/A   Overcast